Flight Track Log - Related Links

Times and Time Zones

All times are in EDT time to prevent confusion due to time zone crossing. See the N4839R flight status page for this flight to view local times or setup timezone preferences in your user account.

Time Position Orientation Groundspeed Altitude Reporting Facility
EDT Latitude Longitude Course Direction KTS MPH feet Rate Location/Type
Fri 02:09:00 PM 30.6230 -84.4153 150° Southeast  Level FlightAware Approximate
Fri 02:09:08 PM 30.7899 -84.3471 99° East 172 198 11,500  Level FlightAware ADS-B (KONZ)
Fri 02:09:38 PM 30.7859 -84.3182 99° East 174 200 12,100 1,200 Climbing FlightAware ADS-B (KONZ)
Fri 02:10:18 PM 30.7806 -84.2810 100° East 178 205 12,900 1,099 Climbing FlightAware ADS-B (KONZ)
Fri 02:10:49 PM 30.7762 -84.2522 100° East 182 209 13,400 1,164 Climbing FlightAware ADS-B (KONZ)
Fri 02:11:25 PM 30.7711 -84.2178 99° East 176 203 14,200 1,235 Climbing FlightAware ADS-B (KONZ)
Fri 02:11:57 PM 30.7663 -84.1885 99° East 177 204 14,800 1,143 Climbing FlightAware ADS-B (KONZ)
Fri 02:12:28 PM 30.7620 -84.1578 99° East 184 212 15,400 1,082 Climbing FlightAware ADS-B (KONZ)
Fri 02:12:58 PM 30.7579 -84.1290 100° East 182 209 15,900 1,043 Climbing FlightAware ADS-B (KONZ)
Fri 02:13:37 PM 30.7523 -84.0915 100° East 189 217 16,600 1,099 Climbing FlightAware ADS-B (KONZ)
Fri 02:14:09 PM 30.7473 -84.0589 100° East 189 217 17,200 1,065 Climbing FlightAware ADS-B (KONZ)
Fri 02:14:39 PM 30.7438 -84.0356 100° East 191 220 17,700 1,100 Climbing FlightAware ADS-B (KONZ)
Fri 02:15:09 PM 30.7382 -83.9989 100° East 192 221 18,300 1,029 Climbing FlightAware ADS-B (KONZ)
Fri 02:15:49 PM 30.7322 -83.9588 100° East 195 224 18,900 943 Climbing FlightAware ADS-B (KONZ)
Fri 02:16:19 PM 30.7274 -83.9263 100° East 197 227 19,400 1,043 Climbing FlightAware ADS-B (KONZ)
Fri 02:16:58 PM 30.7213 -83.8862 100° East 200 230 20,100 1,103 Climbing FlightAware ADS-B (KONZ)
Fri 02:17:46 PM 30.7137 -83.8367 100° East 201 231 21,000 1,063 Climbing FlightAware ADS-B (KONZ)
Fri 02:18:17 PM 30.7086 -83.8035 100° East 201 231 21,500 913 Climbing FlightAware ADS-B (KONZ)
Fri 02:19:18 PM 30.6980 -83.7362 100° East 205 236 22,400 857 Climbing FlightAware ADS-B (KONZ)
Fri 02:19:48 PM 30.6930 -83.7030 100° East 214 246 22,800 411 Climbing FlightAware ADS-B (KONZ)
Fri 02:20:31 PM 30.6850 -83.6526 101° East 232 267 22,900 75 Climbing FlightAware ADS-B (KONZ)
Fri 02:21:08 PM 30.6775 -83.6056 100° East 246 283 22,900 358 Level FlightAware ADS-B (KONZ)
Fri 02:21:38 PM 30.6714 -83.5665 100° East 238 274 23,300 874 Climbing FlightAware ADS-B (KONZ)
Fri 02:22:51 PM 30.6597 -83.4842 100° East 223 257 24,400 947 Climbing Jacksonville Center
Fri 02:23:51 PM 30.6497 -83.4142 99° East 223 257 25,400 750 Climbing Jacksonville Center
Fri 02:24:51 PM 30.6375 -83.3392 101° East 223 257 25,900 250 Climbing Jacksonville Center
Fri 02:25:51 PM 30.6292 -83.2717 98° East 223 257 25,900  Level Jacksonville Center
Fri 02:26:51 PM 30.6147 -83.1919 102° East 234 269 25,900 50 Level Jacksonville Center
Fri 02:27:51 PM 30.6025 -83.1097 100° East 246 283 26,000 50 Climbing Jacksonville Center
Fri 02:28:51 PM 30.5900 -83.0253 100° East 257 296 26,000  Level Jacksonville Center
Fri 02:29:51 PM 30.5733 -82.9433 103° East 257 296 26,000  Level Jacksonville Center
Fri 02:30:51 PM 30.5608 -82.8611 100° East 257 296 26,000  Level Jacksonville Center
Fri 02:31:51 PM 30.5483 -82.7744 99° East 257 296 26,000  Level Jacksonville Center
Fri 02:32:51 PM 30.5358 -82.6900 100° East 257 296 26,000  Level Jacksonville Center
Fri 02:33:51 PM 30.5189 -82.6081 103° East 257 296 26,000  Level Jacksonville Center
Fri 02:34:51 PM 30.5061 -82.5236 100° East 257 296 26,000  Level Jacksonville Center
Fri 02:35:51 PM 30.4933 -82.4417 100° East 257 296 26,000  Level Jacksonville Center
Fri 02:36:51 PM 30.4806 -82.3575 100° East 257 296 26,000  Level Jacksonville Center
Fri 02:37:51 PM 30.4675 -82.2731 100° East 257 296 26,000  Level Jacksonville Center
Fri 02:39:51 PM 30.4394 -82.1094 101° East 257 296 26,000  Level Jacksonville Center
Fri 02:40:51 PM 30.4264 -82.0278 100° East 257 296 26,000  Level Jacksonville Center
Fri 02:41:51 PM 30.4111 -81.9458 102° East 257 296 26,000 500 Level Jacksonville Center
Fri 02:42:51 PM 30.4022 -81.8544 96° East 257 296 27,000  Climbing Jacksonville Center
Fri 02:43:51 PM 30.3806 -81.7778 108° East 262 302 26,000 -550 Descending Jacksonville Center
Fri 02:44:51 PM 30.3672 -81.6889 100° East 257 296 25,900  Descending Jacksonville Center
Fri 02:47:51 PM 30.1806 -81.5853 156° South 247 284 26,000 23 Climbing Jacksonville Center
Fri 02:49:16 PM 30.0747 -81.5268 155° Southeast 264 304 26,000  Level FlightAware ADS-B
Fri 02:52:53 PM 29.9377 -81.4530 155° Southeast 268 308 26,000  Level FlightAware ADS-B
Fri 02:53:00 PM 29.8426 -81.4073 156° South  Level FlightAware Approximate
Fri 02:54:39 PM 29.7151 -81.3335 155° Southeast 268 308 26,000  Level FlightAware ADS-B
Fri 02:55:23 PM 29.6666 -81.3074 155° Southeast 266 306 26,000  Level FlightAware ADS-B
Fri 02:56:06 PM 29.6178 -81.2812 155° Southeast 266 306 26,000  Level FlightAware ADS-B
Fri 02:56:47 PM 29.5730 -81.2573 155° Southeast 266 306 26,000  Level FlightAware ADS-B
Fri 02:57:29 PM 29.5246 -81.2315 155° Southeast 267 307 26,000  Level FlightAware ADS-B
Fri 02:58:14 PM 29.4746 -81.2048 155° Southeast 267 307 26,000  Level FlightAware ADS-B
Fri 02:58:53 PM 29.4309 -81.1814 155° Southeast 267 307 26,000  Level FlightAware ADS-B
Fri 02:59:39 PM 29.3813 -81.1551 155° Southeast 268 308 26,000  Level FlightAware ADS-B
Fri 03:00:16 PM 29.3394 -81.1329 155° Southeast 268 308 26,000  Level FlightAware ADS-B
Fri 03:01:01 PM 29.2863 -81.1066 162° South 267 307 26,000  Level FlightAware ADS-B
Fri 03:02:27 PM 29.1931 -81.0494 149° Southeast 268 308 26,000  Level FlightAware ADS-B
Fri 03:03:29 PM 29.1280 -81.0033 148° Southeast 271 312 26,000  Level FlightAware ADS-B
Fri 03:04:10 PM 29.0848 -80.9727 148° Southeast 268 308 26,000  Level FlightAware ADS-B
Fri 03:04:53 PM 29.0384 -80.9398 148° Southeast 270 311 26,000  Level FlightAware ADS-B
Fri 03:05:37 PM 28.9912 -80.9063 148° Southeast 270 311 26,000  Level FlightAware ADS-B
Fri 03:06:17 PM 28.9499 -80.8769 148° Southeast 270 311 26,000  Level FlightAware ADS-B
Fri 03:07:01 PM 28.9023 -80.8433 148° Southeast 270 311 26,000  Level FlightAware ADS-B
Fri 03:07:45 PM 28.8566 -80.8109 148° Southeast 269 310 26,000  Level FlightAware ADS-B
Fri 03:08:24 PM 28.8143 -80.7810 148° Southeast 270 311 26,000  Level FlightAware ADS-B
Fri 03:09:09 PM 28.7673 -80.7478 148° Southeast 269 310 26,000 -67 Level FlightAware ADS-B
Fri 03:09:53 PM 28.7205 -80.7145 148° Southeast 274 315 25,900 -333 Descending FlightAware ADS-B
Fri 03:10:39 PM 28.6698 -80.6786 148° Southeast 280 322 25,500 -506 Descending FlightAware ADS-B (KSFB)
Fri 03:11:16 PM 28.6298 -80.6505 148° Southeast 281 323 25,200 -514 Descending FlightAware ADS-B
Fri 03:11:49 PM 28.5947 -80.6258 148° Southeast 282 325 24,900 -476 Descending FlightAware ADS-B (KSFB)
Fri 03:12:19 PM 28.5589 -80.6006 148° Southeast 283 326 24,700 -442 Descending FlightAware ADS-B
Fri 03:13:24 PM 28.4880 -80.5509 148° Southeast 281 323 24,200 -389 Descending FlightAware ADS-B
Fri 03:14:07 PM 28.4406 -80.5176 148° Southeast 272 313 24,000 -289 Descending FlightAware ADS-B
Fri 03:14:47 PM 28.3995 -80.4888 149° Southeast 273 314 23,800 -414 Descending FlightAware ADS-B
Fri 03:15:34 PM 28.3474 -80.4525 148° Southeast 275 316 23,400 -472 Descending FlightAware ADS-B
Fri 03:16:16 PM 28.3013 -80.4203 148° Southeast 274 315 23,100 -229 Descending FlightAware ADS-B
Fri 03:17:19 PM 28.2355 -80.3743 148° Southeast 260 299 23,000 -43 Descending FlightAware ADS-B
Fri 03:18:34 PM 28.1593 -80.3212 149° Southeast 255 293 23,000  Level FlightAware ADS-B
Fri 03:19:15 PM 28.1178 -80.2924 148° Southeast 254 292 23,000  Level FlightAware ADS-B
Fri 03:19:51 PM 28.0818 -80.2674 149° Southeast 252 290 23,000  Level FlightAware ADS-B
Fri 03:20:40 PM 28.0371 -80.2364 148° Southeast 253 291 23,000  Level FlightAware ADS-B
Fri 03:22:29 PM 27.9252 -80.1588 148° Southeast 253 291 23,000 -122 Level FlightAware ADS-B
Fri 03:23:08 PM 27.8864 -80.1318 149° Southeast 263 303 22,700 -525 Descending FlightAware ADS-B
Fri 03:23:49 PM 27.8485 -80.1065 156° South 266 306 22,300 -590 Descending FlightAware ADS-B
Fri 03:24:09 PM 27.8167 -80.1021 175° South 264 304 22,100 -940 Descending FlightAware ADS-B
Fri 03:25:12 PM 27.7427 -80.0904 172° South 248 285 21,000 -1,065 Descending FlightAware ADS-B
Fri 03:25:56 PM 27.6929 -80.0832 173° South 243 280 20,200 -1,116 Descending FlightAware ADS-B
Fri 03:26:38 PM 27.6497 -80.0769 173° South 239 275 19,400 -1,139 Descending FlightAware ADS-B
Fri 03:27:15 PM 27.6058 -80.0705 172° South 240 276 18,700 -1,091 Descending FlightAware ADS-B
Fri 03:30:07 PM 27.4204 -80.0436 173° South 227 261 15,600 -1,136 Descending FlightAware ADS-B
Fri 03:31:55 PM 27.3060 -80.0268 173° South 227 261 13,400 -1,015 Descending FlightAware ADS-B
Fri 03:36:37 PM 27.0298 -79.9620 179° South 205 236 9,000 -888 Descending FlightAware ADS-B (RJTF)
Fri 03:36:59 PM 27.0072 -79.9612 178° South 206 237 8,900 -43 Descending FlightAware ADS-B (RJTF)
Fri 03:38:56 PM 26.8976 -79.9575 178° South 206 237 8,900 30 Level FlightAware ADS-B (RJTF)
Fri 03:40:17 PM 26.8417 -79.9561 178° South 207 238 9,000  Climbing Miami Center
Fri 03:41:19 PM 26.7806 -79.9542 178° South 206 237 8,900 -290 Descending Miami Center
Fri 03:42:21 PM 26.7222 -79.9519 178° South 209 241 8,400 -532 Descending Miami Center
Fri 03:43:23 PM 26.6661 -79.9503 178° South 203 234 7,800 -725 Descending Miami Center
Fri 03:43:52 PM 26.6358 -79.9503 180° South 199 229 7,300 -968 Descending Miami Center
Fri 03:44:25 PM 26.6072 -79.9489 178° South 198 228 6,800 -975 Descending Miami Center
Fri 03:45:12 PM 26.5606 -79.9492 180° South 200 230 6,000 -968 Descending Miami Center
Fri 03:45:27 PM 26.5511 -79.9467 167° South 199 229 5,800 -873 Descending Miami Center
Fri 03:46:07 PM 26.5125 -79.9456 179° South 199 229 5,200 -968 Descending Miami Center
Fri 03:46:29 PM 26.4931 -79.9464 182° South 193 222 4,800 -1,068 Descending Miami Center
Fri 03:47:20 PM 26.4494 -79.9478 182° South 181 208 3,900 -968 Descending Miami Center
Fri 03:47:31 PM 26.4425 -79.9486 186° South 185 213 3,800 -764 Descending Miami Center
Fri 03:48:15 PM 26.4033 -79.9514 184° South 182 209 3,200 -774 Descending Miami Center
Fri 03:48:33 PM 26.3886 -79.9522 183° South 181 208 3,000 -735 Descending Miami Center
Fri 03:49:04 PM 26.3689 -79.9675 215° Southwest 173 199 2,600 -689 Descending Miami Center
Fri 03:49:34 PM 26.3503 -79.9869 223° Southwest 179 206 2,300 -583 Descending Miami Center
Fri 03:50:16 PM 26.3278 -80.0203 233° Southwest 186 214 1,900 -484 Descending Miami Center
Fri 03:50:36 PM 26.3214 -80.0331 241° Southwest 179 206 1,800 -480 Descending Miami Center
Fri 03:51:06 PM 26.3086 -80.0606 243° Southwest 184 212 1,500 -484 Descending Miami Center
Fri 03:51:38 PM 26.3031 -80.0875 257° West 177 204 1,300 -273 Descending Miami Center
Fri 03:52:12 PM 26.2931 -80.1106 244° Southwest 127 146 1,200 -194 Descending Miami Center
Fri 03:52:40 PM 26.2881 -80.1208 242° Southwest 135 155 1,100 -590 Descending Miami Center
Fri 03:53:13 PM 26.2711 -80.1250 192° South 89 102 600 -871 Descending Miami Center
Fri 03:53:42 PM 26.2597 -80.1217 165° South 93 107 200 -330 Descending Miami Center
Fri 03:54:44 PM 26.2397 -80.1050 143° Southeast 91 105 100 -97 Descending Miami Center
Fri 03:56:00 PM 26.2474 -80.1112 187° South  Level Estimated

Login

Don't have an account? Register now (free) for customized features, flight alerts, and more!